Torna al catalogo

SL-12 R/B(2)

AttivoGEO
NORAD 11571·ROCKET BODY·🇷🇺 Russia

Lanciato Sep 20, 1977 da Baikonur Cosmodrome

Loading…

TLE

AggiornatoSource: Space-Track

Epoca: Sep 14, 2026, 21:06 UTC

1 11571U 77092G   26257.87970722 -.00000328  00000-0  00000-0 0  9998
2 11571   3.3062 267.6467 0009499 193.6006 307.3939  1.01288019123869

Traccia SL-12 R/B(2) in tempo reale con AllMySat

Download on the App Store